www.pogodaiklimat.ru

Погода и климат >> Архив погоды >> Чили >> Isla De Pascua


ПОГОДА в Isla De Pascua

  • Прогноз погоды в Isla De Pascua
  • Монитор погоды в Isla De Pascua
  • Климат города

АРХИВ ПОГОДЫ в Isla De Pascua

Время (UTC), дата Ветер
(напр.,м/с)
 
Видим.   Явления Облачность Т
(С)
Тd
(С)
f
(%)
Тe
(С)
Тes
(С)
Комфортность P
(гПа)
Po
(гПа)
Тmin
(С)
Tmax
(С)
R
(мм)
R24
(мм)
S
(см)
18 12.09 СВ 6 15 км 6/4 600 м
[Cu med, cong Ci fib]
+22.0 +14.5 62 +25 +29 комфорт 1028.1 1023.0
21 12.09 СВ 7 15 км в посл. час ливневой дождь 8/6 600 м
[Cu med, cong Ci fib]
+21.2 +14.5 66 +24 +26 комфорт 1026.9 1021.7
00 13.09 СВ 6 10 км в посл. час ливневой дождь 8/6 600 м
[Cu med, cong Ci]
+19.7 +15.0 74 +21 +22 комфорт 1026.3 1021.1
03 13.09 В 5 15 км 6/6 600 м
[Cu hum]
+18.6 +14.3 76 +19 +19 1027.3 1022.1 +22.8
06 13.09 В 5 20 км 3/3 600 м
[Cu hum]
+18.5 +11.4 63 +19 +19 1027.4 1022.2
09 13.09 В 5 20 км 3/3 600 м
[Cu hum]
+17.7 +13.5 76 +17 +17 1026.4 1021.2
12 13.09 В 4 20 км 9/3 600 м
[Cu hum Ci]
+17.3 +13.1 76 +17 +17 1025.4 1020.2
15 13.09 В 5 10 км 8/8 750 м
[Cu Sc Ci]
+19.2 +14.9 76 +20 +21 1026.9 1021.7 +16.7
18 13.09 СВ 6 15 км {ливн. осадки} 9/9 750 м
[Cu Sc]
+21.7 +14.2 62 +25 +25 комфорт 1027.4 1022.3
21 13.09 СВ 6 15 км 8/8 600 м
[Cu Sc]
+22.0 +13.7 59 +25 +26 комфорт 1025.6 1020.5
00 14.09 СВ 5 10 км 8/6 750 м
[Cu Sc Cs]
+20.7 +15.1 70 +24 +24 комфорт 1025.0 1019.9
03 14.09 СВ 4 15 км в посл. час ливневой дождь {метель} 8/8 600 м
[Cu Sc]
+18.9 +15.4 80 +20 +20 1025.8 1020.6 +23.7
06 14.09 СВ 4 15 км 8/8 600 м
[Cu Sc]
+19.2 +14.9 76 +21 +21 комфорт 1026.2 1021.0
09 14.09 СВ 3 15 км 5/5 600 м
[Cu hum]
+18.4 +15.1 81 +19 +19 1025.0 1019.8
12 14.09 СВ 6 15 км 4/4 600 м
[Cu med, cong]
+17.7 +14.4 81 +17 +17 1023.9 1018.7
15 14.09 С 4 20 км 8/4 600 м
[Cu hum Ci fib]
+19.7 +15.0 74 +22 +23 комфорт 1025.5 1020.3 +17.2
18 14.09 С 7 20 км 6/4 1200 м
[Cu med, cong Ci fib]
+22.1 +15.8 67 +26 +29 душно 1026.0 1020.9
21 14.09 С 6 20 км 8/3 500 м
[Cu hum Ci fib]
+22.2 +16.1 68 +26 +30 душно 1023.9 1018.8
00 15.09 С 7 20 км 9/4 600 м
[Cu hum Ci fib]
+20.9 +16.4 75 +24 +24 комфорт 1023.2 1018.1
03 15.09 С 5 10 км 4/4 600 м
[Cu med, cong]
+19.7 +16.2 80 +22 +22 комфорт 1024.3 1019.1 +22.9
06 15.09 С 4 10 км 8/8 600 м
[Cu Sc Ci]
+19.5 +17.0 85 +22 +22 комфорт 1024.9 1019.7
09 15.09 С 4 10 км 9/5 600 м
[Cu med, cong Ci]
+19.7 +16.6 82 +22 +22 комфорт 1023.3 1018.1
12 15.09 С 4 10 км 9/9 600 м
[Cu Sc]
+19.5 +16.8 84 +22 +22 комфорт 1022.1 1016.9
15 15.09 С 4 15 км в посл. час ливневой дождь 9/9 500 м
[Cu Sc]
+19.8 +17.4 86 +23 +23 комфорт 1023.2 1018.0 +18.4
18 15.09 СЗ 9 20 км 8/8 480 м
[Cu Sc]
+22.3 +17.5 74 +27 +27 душно 1023.1 1018.0
21 15.09 СЗ 11 15 км 6/4 500 м
[Cu med, cong Ci]
+22.8 +17.8 73 +28 +28 душно 1021.4 1016.3
00 16.09 СЗ 5 10 км 8/8 600 м
[Cu Sc]
+21.1 +17.6 80 +25 +25 комфорт 1020.7 1015.6
03 16.09 ЮЗ 4 5000 м слабый ливневой дождь со снегом 10/10 300 м
[Cu Sc]
+17.4 +16.8 96 +17 +17 1021.9 1016.7 +23.6
06 16.09 Ю 5 10 км {ливн. осадки} 10/10 300 м
[Cu Sc]
+18.1 +16.8 92 +18 +18 1022.2 1017.0
09 16.09 ЮВ 6 10 км {ливн. осадки} 10/10 300 м
[Cu Sc]
+17.5 +14.2 81 +17 +17 1021.0 1015.8
12 16.09 Ю 5 10 км 9/9 600 м
[Cu Sc]
+17.1 +11.0 67 +17 +17 1021.2 1016.0
15 16.09 Ю 6 20 км 5/5 600 м
[Cu hum]
+17.9 +9.6 58 +17 +18 1022.8 1017.6 +16.7
18 16.09 Ю 6 20 км 5/3 900 м
[Cu hum Ci sp]
+19.2 +7.7 47 +19 +23 1023.8 1018.6
21 16.09 Ю 7 20 км 6/6 1200 м
[Cu hum]
+18.7 +7.6 48 +18 +20 1022.6 1017.4
00 17.09 Ю 6 20 км 6/6 600 м
[Cu hum]
+17.7 +8.6 55 +17 +17 1022.4 1017.2
03 17.09 Ю 6 10 км 5/5 900 м
[St]
+16.4 +6.9 53 +15 +15 1024.0 1018.8 +20.3
06 17.09 ЮВ 5 10 км 6/6 1200 м
[Sc]
+16.3 +4.8 46 +15 +15 1024.7 1019.5
09 17.09 Ю 5 10 км 8/8 1200 м
[Sc]
+16.4 +6.3 51 +16 +16 1023.6 1018.4
12 17.09 ЮВ 6 10 км 8/8 1200 м
[Sc]
+16.1 +6.3 52 +15 +15 1023.3 1018.1
15 17.09 Ю 4 15 км 8/8 1200 м
[Sc]
+17.3 +8.0 54 +17 +17 1025.0 1019.8 +15.5
18 17.09 ЮВ 7 15 км 8/8 1200 м
[Sc]
+19.3 +7.2 45 +19 +20 1026.1 1020.9
21 17.09 ЮВ 7 15 км 6/6 1200 м
[Sc]
+19.8 +8.0 46 +20 +22 1024.3 1019.1
00 18.09 ЮВ 6 15 км 6/6 1200 м
[Sc]
+17.6 +8.8 56 +17 +17 1024.0 1018.8
03 18.09 ЮВ 5 20 км 8/8 1200 м
[Cu hum]
+17.1 +7.3 52 +16 +16 1025.5 1020.3 +20.1
06 18.09 ЮВ 5 20 км 6/6 1200 м
[Cu hum]
+17.3 +8.3 55 +17 +17 1026.1 1020.9
09 18.09 ЮВ 4 20 км 9/9 1200 м
[Cu hum]
+17.1 +7.5 53 +17 +17 1025.1 1019.9
12 18.09 ЮВ 5 20 км 9/9 1200 м
[Cu hum]
+17.1 +9.4 60 +16 +16 1024.5 1019.3
15 18.09 В 5 10 км 9/9 1500 м
[Sc]
+18.0 +8.1 52 +18 +18 1026.1 1020.9 +16.4
18 18.09 В 6 10 км 9/9 1500 м
[Sc]
+19.7 +8.5 48 +20 +21 1026.3 1021.1
21 18.09 В 5 10 км 8/8 1500 м
[Sc]
+19.8 +8.9 49 +21 +22 комфорт 1024.9 1019.7
00 19.09 СВ 4 10 км 9/9 1500 м
[Sc]
+18.7 +10.9 60 +19 +19 1024.6 1019.4
03 19.09 В 2 15 км 9/9 750 м
[Cu Sc]
+17.2 +11.3 68 +18 +18 1026.0 1020.8 +21.1
06 19.09 СЗ 2 10 км слабый ливневой дождь 9/9 750 м
[Cu Sc]
+16.2 +13.2 82 +17 +17 1026.7 1021.5
09 19.09 В 3 15 км {ливн. осадки} 9/9 750 м
[Cu Sc]
+17.5 +12.0 70 +17 +17 1025.4 1020.2
12 19.09 ЮВ 2 15 км 9/9 750 м
[Cu Sc]
+16.1 +13.2 83 +16 +16 1024.3 1019.1

 

Местоположение метеостанции Isla De Pascua (Чили): широта -27.16 долгота -109.40 высота над уровнем моря 69 м.

В архиве по умолчанию представлена погода в Isla De Pascua за последнюю неделю. Архивные данные за месяц целиком и за предыдущие месяцы, начиная с января 2011 года, Вы можете получить, выбрав интересующий диапазон дат из раскрывающегося списка и нажав кнопку "Ввод!".

Внимание! Время в таблицах - всемирное. Для получения местного времени необходимо прибавить поправку, которая в Isla De Pascua равна -4 ч.

Смотрите также архив погоды в соседних городах и на ближайших метеорологических станциях:

Пояснения к столбцам:

Ветер - указаны скорость ветра в м/с - средняя за 10 мин, порывы в срок и между сроками (в фигурных скобках) и направление, откуда дует ветер: С - северный, СВ - северо-восточный, В - восточный, ЮВ - юго-восточный, Ю - южный, ЮЗ - юго-западный, З - западный, СЗ - северо-западный.
Видимость - горизонтальная дальность видимости в метрах или километрах. При видимости от 1 до 10 км при отсутствии осадков обычно наблюдается дымка, при ухудшении видимости до 1 км и менее - туман. В сухую погоду видимость может ухудшаться дымом, пылью или мглою.
Явления - указаны атмосферные явления, наблюдавшиеся в срок или в последний час перед сроком; фигурными скобками обозначены явления, наблюдавшиеся между сроками (за 1-3 часа до срока); квадратными скобками обозначены град или гололедные отложения с указанием их диаметра в мм.
Облачность - указаны через наклонную черту общая и нижняя облачность в баллах и высота нижней границы облаков в метрах; квадратными скобками обозначены формы облаков: Ci - перистые, Cs - перисто-слоистые, Cc - перисто-кучевые, Ac - высококучевые, As - высокослоистые, Sc - слоисто-кучевые, Ns - слоисто-дождевые, Cu - кучевые, Cb - кучево-дождевые. Подробнее классификацию облаков см. в Атласе облаков (PDF).
T - Температура воздуха - температура, измеренная на высоте 2 м над землей.
Td - Температура точки росы - температура, при понижении до которой содержащийся в воздухе водяной пар достигнет насыщения.
f - Относительная влажность воздуха - влажноcть воздуха, измеренная на высоте 2 м над землей.
Te - Эффективная температура - температура, которую ощущает одетый по сезону человек в тени. Характеристика душности погоды. При расчете учитывается влияние влажности воздуха и скорости ветра на теплоощущения человека.
Tes - Эффективная температура на солнце - температура, которую ощущает человек, с поправкой на солнечный нагрев. Характеристика знойности погоды. Зависит от высоты солнца над горизонтом, облачности и скорости ветра. Ночью, в пасмурную погоду, а также при ветре 12 м/с и более поправка равна нулю.
P - Атмосферное давление - приведенное к уровню моря атмосферное давление.
Po - Атмосферное давление - измеренное на уровне метеостанции атмосферное давление.
Tmin - Минимальная температура - минимум температуры воздуха на высоте 2 м над землей.
Tmax - Максимальная температура - максимум температуры воздуха на высоте 2 м над землей.
R - Количество осадков - Количество выпавших осадков за период времени, мм. При наведении курсора мыши на число - период времени, за который выпало указанное количество осадков.
R24 - Количество осадков - Количество выпавших осадков за 24 часа, мм.
S - Снежный покров - Высота снежного покрова, см. При наведении курсора мыши на число - состояние снежного покрова и степень покрытия местности в баллах.